| time (UTC) | temp F | wind direction | speed MPH | gust MPH | rain 1hr in | rain 24hr in | rain mn in | humidity % | barometer mb |
| 20260503203119 | 55 | 253 | 4.0 | 5.0 | 0.00 | 0.00 | 0.00 | 55 | 1012.4 |
| 20260503202114 | 55 | 339 | 8.0 | 14.0 | 0.00 | 0.00 | 0.00 | 55 | 1012.3 |
| 20260503201109 | 55 | 330 | 10.0 | 16.0 | 0.00 | 0.00 | 0.00 | 54 | 1012.6 |
| 20260503200107 | 55 | 270 | 15.0 | 18.0 | 0.00 | 0.00 | 0.00 | 53 | 1012.5 |
| 20260503195105 | 55 | 230 | 5.0 | 8.0 | 0.00 | 0.00 | 0.00 | 52 | 1012.6 |
| 20260503194103 | 56 | 239 | 7.0 | 9.0 | 0.00 | 0.00 | 0.00 | 51 | 1012.6 |
| 20260503193101 | 56 | 294 | 14.0 | 17.0 | 0.00 | 0.00 | 0.00 | 51 | 1012.5 |
| 20260503192100 | 56 | 281 | 12.0 | 18.0 | 0.00 | 0.00 | 0.00 | 49 | 1012.7 |
| 20260503191059 | 56 | 242 | 10.0 | 17.0 | 0.00 | 0.00 | 0.00 | 50 | 1012.8 |
| 20260503190059 | 56 | 301 | 15.0 | 17.0 | 0.00 | 0.00 | 0.00 | 49 | 1012.9 |
| 20260503185055 | 57 | 249 | 13.0 | 17.0 | 0.00 | 0.00 | 0.00 | 46 | 1012.9 |
| 20260503184054 | 57 | 275 | 15.0 | 18.0 | 0.00 | 0.00 | 0.00 | 43 | 1012.6 |
| 20260503183054 | 57 | 187 | 8.0 | 10.0 | 0.00 | 0.00 | 0.00 | 42 | 1012.6 |
| 20260503182050 | 58 | 170 | 10.0 | 14.0 | 0.00 | 0.00 | 0.00 | 41 | 1012.5 |
| 20260503181049 | 58 | 222 | 11.0 | 14.0 | 0.00 | 0.00 | 0.00 | 41 | 1012.7 |
| 20260503180044 | 57 | 214 | 14.0 | 21.0 | 0.00 | 0.00 | 0.00 | 44 | 1013.2 |
| 20260503175044 | 56 | 211 | 11.0 | 16.0 | 0.00 | 0.00 | 0.00 | 55 | 1012.9 |
| 20260503174043 | 56 | 211 | 11.0 | 16.0 | 0.00 | 0.00 | 0.00 | 55 | 1013.2 |
| 20260503173041 | 56 | 210 | 22.0 | 25.0 | 0.00 | 0.00 | 0.00 | 58 | 1013.5 |
| 20260503172041 | 54 | 192 | 6.0 | 11.0 | 0.00 | 0.00 | 0.00 | 58 | 1013.7 |
| 20260503171041 | 55 | 192 | 18.0 | 22.0 | 0.00 | 0.00 | 0.00 | 57 | 1013.7 |
| 20260503131007 | 42 | 230 | 3.0 | 6.0 | 0.00 | 0.00 | 0.00 | 63 | 1016.7 |
| 20260503080849 | 0 | 0.0 | 0.0 | 0.00 | 0.00 | 0.00 | 1016.8 | ||
| 20260503072840 | 36 | 201 | 2.0 | 3.0 | 0.00 | 0.00 | 0.00 | 82 | 1016.8 |
| 20260503071839 | 36 | 201 | 2.0 | 3.0 | 0.00 | 0.00 | 0.00 | 82 | 1016.8 |
| 20260503070838 | 36 | 201 | 1.0 | 2.0 | 0.00 | 0.00 | 0.00 | 81 | 1017.0 |
| 20260503054820 | 37 | 196 | 1.0 | 2.0 | 0.00 | 0.00 | 0.00 | 73 | 1017.7 |
| 20260503053819 | 37 | 201 | 3.0 | 8.0 | 0.00 | 0.00 | 0.00 | 72 | 1017.8 |
| 20260503052819 | 37 | 193 | 1.0 | 2.0 | 0.00 | 0.00 | 0.00 | 70 | 1017.8 |
| 20260503051818 | 37 | 217 | 1.0 | 2.0 | 0.00 | 0.00 | 0.00 | 68 | 1017.8 |
| 20260503050818 | 37 | 226 | 2.0 | 2.0 | 0.00 | 0.00 | 0.00 | 65 | 1017.9 |
| 20260503045817 | 37 | 222 | 3.0 | 3.0 | 0.00 | 0.00 | 0.00 | 62 | 1017.8 |
| 20260503044817 | 37 | 210 | 3.0 | 6.0 | 0.00 | 0.00 | 0.00 | 58 | 1018.1 |
| 20260503043816 | 37 | 195 | 2.0 | 2.0 | 0.00 | 0.00 | 0.00 | 56 | 1018.0 |
| 20260503042815 | 37 | 181 | 2.0 | 5.0 | 0.00 | 0.00 | 0.00 | 55 | 1018.1 |
| 20260503041814 | 37 | 226 | 0.0 | 1.0 | 0.00 | 0.00 | 0.00 | 53 | 1018.0 |
| 20260503040809 | 37 | 207 | 0.0 | 1.0 | 0.00 | 0.00 | 0.00 | 51 | 1018.4 |
| 20260503035808 | 37 | 197 | 0.0 | 0.0 | 0.00 | 0.00 | 0.00 | 51 | 1018.3 |
| 20260503034808 | 38 | 202 | 0.0 | 0.0 | 0.00 | 0.00 | 0.00 | 49 | 1018.0 |
| 20260503033808 | 38 | 217 | 0.0 | 0.0 | 0.00 | 0.00 | 0.00 | 49 | 1018.4 |
| 20260503032804 | 38 | 215 | 0.0 | 0.0 | 0.00 | 0.00 | 0.00 | 48 | 1018.4 |
| 20260503031759 | 39 | 245 | 0.0 | 0.0 | 0.00 | 0.00 | 0.00 | 48 | 1018.4 |
| 20260503030759 | 39 | 233 | 0.0 | 1.0 | 0.00 | 0.00 | 0.00 | 48 | 1018.3 |
| 20260503025757 | 39 | 225 | 0.0 | 0.0 | 0.00 | 0.00 | 0.00 | 48 | 1018.3 |
| 20260503024758 | 39 | 224 | 0.0 | 0.0 | 0.00 | 0.00 | 0.00 | 48 | 1018.7 |
| 20260503023757 | 39 | 222 | 0.0 | 0.0 | 0.00 | 0.00 | 0.00 | 48 | 1018.5 |
| 20260503022756 | 39 | 214 | 0.0 | 0.0 | 0.00 | 0.00 | 0.00 | 48 | 1018.7 |
| 20260503021753 | 39 | 230 | 0.0 | 0.0 | 0.00 | 0.00 | 0.00 | 46 | 1018.7 |
| 20260503020753 | 39 | 231 | 0.0 | 0.0 | 0.00 | 0.00 | 0.00 | 46 | 1018.7 |
| 20260503015752 | 39 | 247 | 0.0 | 0.0 | 0.00 | 0.00 | 0.00 | 47 | 1018.6 |
| 20260503014751 | 39 | 143 | 0.0 | 0.0 | 0.00 | 0.00 | 0.00 | 46 | 1018.7 |
| 20260503013746 | 39 | 132 | 0.0 | 0.0 | 0.00 | 0.00 | 0.00 | 46 | 1018.5 |
| 20260503012746 | 39 | 134 | 1.0 | 1.0 | 0.00 | 0.00 | 0.00 | 46 | 1018.5 |
| 20260503011746 | 39 | 137 | 1.0 | 1.0 | 0.00 | 0.00 | 0.00 | 46 | 1018.4 |
| 20260503010745 | 40 | 221 | 1.0 | 1.0 | 0.00 | 0.00 | 0.00 | 46 | 1018.3 |
| 20260503005740 | 40 | 245 | 1.0 | 1.0 | 0.00 | 0.00 | 0.00 | 45 | 1018.3 |
| 20260503004739 | 40 | 264 | 0.0 | 0.0 | 0.00 | 0.00 | 0.00 | 46 | 1018.3 |
| 20260503003734 | 40 | 294 | 0.0 | 1.0 | 0.00 | 0.00 | 0.00 | 45 | 1018.0 |
| 20260503002733 | 41 | 276 | 1.0 | 1.0 | 0.00 | 0.00 | 0.00 | 43 | 1018.0 |
| 20260503001732 | 42 | 311 | 3.0 | 5.0 | 0.00 | 0.00 | 0.00 | 40 | 1018.1 |
| 20260503000727 | 42 | 323 | 3.0 | 5.0 | 0.00 | 0.00 | 0.00 | 39 | 1018.0 |
| 20260502235726 | 42 | 329 | 3.0 | 3.0 | 0.00 | 0.00 | 0.00 | 39 | 1018.1 |
| 20260502234726 | 43 | 341 | 3.0 | 6.0 | 0.00 | 0.00 | 0.00 | 38 | 1018.0 |
| 20260502233726 | 43 | 312 | 4.0 | 6.0 | 0.00 | 0.00 | 0.00 | 38 | 1017.8 |
| 20260502232724 | 44 | 336 | 1.0 | 2.0 | 0.00 | 0.00 | 0.00 | 39 | 1018.0 |
| 20260502231724 | 43 | 327 | 6.0 | 9.0 | 0.00 | 0.00 | 0.00 | 40 | 1018.0 |
| 20260502230721 | 43 | 311 | 8.0 | 9.0 | 0.00 | 0.00 | 0.00 | 41 | 1018.0 |
| 20260502225720 | 43 | 327 | 5.0 | 8.0 | 0.00 | 0.00 | 0.00 | 43 | 1018.0 |
| 20260502224719 | 42 | 298 | 3.0 | 5.0 | 0.00 | 0.00 | 0.00 | 43 | 1018.1 |
| 20260502223714 | 42 | 345 | 2.0 | 2.0 | 0.00 | 0.00 | 0.00 | 45 | 1018.1 |
| 20260502222709 | 42 | 295 | 2.0 | 3.0 | 0.00 | 0.00 | 0.00 | 46 | 1017.9 |
| 20260502221708 | 42 | 331 | 0.0 | 1.0 | 0.00 | 0.00 | 0.00 | 50 | 1018.0 |
| 20260502220706 | 42 | 332 | 1.0 | 2.0 | 0.00 | 0.00 | 0.00 | 51 | 1018.2 |
| 20260502215706 | 42 | 1 | 1.0 | 1.0 | 0.00 | 0.00 | 0.00 | 51 | 1018.3 |
| 20260502214706 | 42 | 11 | 0.0 | 0.0 | 0.00 | 0.00 | 0.00 | 53 | 1018.1 |
| 20260502213706 | 41 | 339 | 3.0 | 5.0 | 0.00 | 0.00 | 0.00 | 56 | 1018.3 |
| 20260502212702 | 42 | 297 | 0.0 | 0.0 | 0.00 | 0.00 | 0.00 | 57 | 1018.1 |
| 20260502211701 | 41 | 334 | 1.0 | 1.0 | 0.00 | 0.00 | 0.00 | 58 | 1018.2 |
| 20260502210701 | 41 | 351 | 1.0 | 2.0 | 0.00 | 0.00 | 0.00 | 59 | 1018.3 |
| 20260502205702 | 41 | 358 | 4.0 | 6.0 | 0.00 | 0.00 | 0.00 | 60 | 1018.3 |
| 20260502204701 | 41 | 296 | 5.0 | 7.0 | 0.00 | 0.00 | 0.00 | 55 | 1018.2 |
| 20260502203656 | 42 | 305 | 5.0 | 9.0 | 0.00 | 0.00 | 0.00 | 54 | 1018.5 |